Voltar ao catálogo

STARLINK-11707

AtivoComunicaçõesVLEO
NORAD 64328·PAYLOAD·🇺🇸 United States

Lançado Jun 10, 2025 de Cape Canaveral Space Force Station

Loading…

Próximas Passagens (próximas 24 horas)

TLE

AtualizadoSource: CelesTrak SupGP

Época: Sep 14, 2026, 21:07 UTC

1 64328C 25124M   26257.88034722 -.00078626  00000+0 -61040-3 0  2574
2 64328  43.0000 328.7496 0001574 259.9378 332.8023 15.70888648    18

Acompanhe STARLINK-11707 em tempo real com AllMySat

Download on the App Store